When you browse on this site, cookies collect data to enhance your experience and personalize the content and advertising you see.
Visit our Privacy Policy to learn more. By continuing to use the site, you agree to this use of cookies and data.
  • In Czech Republic
  • List of Countries
  • For 7 days
  • Water Temperature
  • Weather Map
  • Weather Widgets
  • user-avatar
    Login

    Hourly Weather Mahilyow

    Today, 2 June, Tuesday

    Time Temperature Precipitation Wind Pressure Humidity
    00:00 +6°C° 1.3 mm 7 mps 742 mmHg 95%
    01:00 +6°C° 1.3 mm 7 mps 741 mmHg 95%
    02:00 +6°C° 0 mm 7 mps 741 mmHg 95%
    03:00 +6°C° 1 mm 7 mps 740 mmHg 95%
    04:00 +6°C° 1 mm 7 mps 740 mmHg 95%
    05:00 +6°C° 1 mm 7 mps 740 mmHg 95%
    06:00 +6°C° 1.1 mm 7 mps 740 mmHg 95%
    07:00 +6°C° 1.1 mm 7 mps 740 mmHg 95%
    08:00 +8°C° 0 mm 7 mps 740 mmHg 96%
    09:00 +8°C° 1.9 mm 6 mps 740 mmHg 96%
    10:00 +8°C° 1.9 mm 6 mps 740 mmHg 96%
    11:00 +8°C° 1.9 mm 6 mps 740 mmHg 96%
    12:00 +9°C° 1 mm 5 mps 740 mmHg 95%
    13:00 +10°C° 1 mm 4 mps 740 mmHg 95%
    14:00 +11°C° 0 mm 3 mps 741 mmHg 95%
    15:00 +12°C° 0.4 mm 3 mps 740 mmHg 91%
    16:00 +13°C° 0.4 mm 3 mps 740 mmHg 87%
    17:00 +13°C° 0.4 mm 3 mps 740 mmHg 84%
    18:00 +12°C° 0.2 mm 3 mps 740 mmHg 87%
    19:00 +11°C° 0.2 mm 3 mps 740 mmHg 89%
    20:00 +10°C° 0.2 mm 2 mps 741 mmHg 92%
    21:00 +9°C° 0 mm 2 mps 740 mmHg 93%
    22:00 +8°C° 0 mm 2 mps 740 mmHg 94%
    23:00 +7°C° 0 mm 2 mps 740 mmHg 94%

    Tomorrow, 3 June, Wednesday

    Time Temperature Precipitation Wind Pressure Humidity
    00:00 +7°C° 0 mm 2 mps 741 mmHg 95%
    01:00 +7°C° 0 mm 2 mps 741 mmHg 95%
    02:00 +6°C° 0 mm 2 mps 741 mmHg 95%
    03:00 +6°C° 0 mm 2 mps 741 mmHg 96%
    04:00 +6°C° 0 mm 2 mps 741 mmHg 96%
    05:00 +7°C° 0 mm 3 mps 740 mmHg 96%
    06:00 +8°C° 0 mm 3 mps 740 mmHg 92%
    07:00 +10°C° 0 mm 3 mps 741 mmHg 88%
    08:00 +12°C° 0 mm 4 mps 741 mmHg 84%
    09:00 +13°C° 0.1 mm 4 mps 741 mmHg 78%
    10:00 +14°C° 0.1 mm 5 mps 740 mmHg 72%
    11:00 +16°C° 0.1 mm 5 mps 740 mmHg 66%
    12:00 +16°C° 0.4 mm 5 mps 740 mmHg 67%
    13:00 +16°C° 0.4 mm 5 mps 740 mmHg 68%
    14:00 +16°C° 0.4 mm 5 mps 740 mmHg 70%
    15:00 +16°C° 0.4 mm 5 mps 740 mmHg 72%
    16:00 +15°C° 0.4 mm 4 mps 739 mmHg 74%
    17:00 +15°C° 0.4 mm 4 mps 739 mmHg 76%
    18:00 +14°C° 0.2 mm 3 mps 739 mmHg 81%
    19:00 +13°C° 0.2 mm 3 mps 739 mmHg 85%
    20:00 +12°C° 0.2 mm 2 mps 739 mmHg 90%
    21:00 +12°C° 0 mm 2 mps 739 mmHg 91%
    22:00 +10°C° 0 mm 2 mps 739 mmHg 92%
    23:00 +9°C° 0 mm 2 mps 739 mmHg 93%

    Day after tomorrow, 4 June, Thursday

    Time Temperature Precipitation Wind Pressure Humidity
    00:00 +9°C° 0 mm 2 mps 739 mmHg 94%
    01:00 +8°C° 0 mm 2 mps 739 mmHg 95%
    02:00 +8°C° 0 mm 2 mps 739 mmHg 95%
    03:00 +8°C° 0 mm 2 mps 738 mmHg 96%
    04:00 +8°C° 0 mm 2 mps 738 mmHg 96%
    05:00 +8°C° 0 mm 3 mps 738 mmHg 97%
    06:00 +10°C° 0 mm 3 mps 738 mmHg 93%
    07:00 +11°C° 0 mm 3 mps 738 mmHg 89%
    08:00 +13°C° 0 mm 4 mps 738 mmHg 85%
    09:00 +14°C° 0.1 mm 4 mps 738 mmHg 78%
    10:00 +15°C° 0.1 mm 4 mps 738 mmHg 72%
    11:00 +17°C° 0.1 mm 4 mps 738 mmHg 65%
    12:00 +17°C° 0.2 mm 4 mps 738 mmHg 64%
    13:00 +18°C° 0.2 mm 4 mps 738 mmHg 63%
    14:00 +17°C° 0.2 mm 5 mps 738 mmHg 63%
    15:00 +18°C° 0.5 mm 4 mps 737 mmHg 67%
    16:00 +17°C° 0.5 mm 4 mps 737 mmHg 72%
    17:00 +15°C° 0.5 mm 4 mps 737 mmHg 76%
    18:00 +14°C° 0.4 mm 4 mps 737 mmHg 80%
    19:00 +13°C° 0.4 mm 3 mps 737 mmHg 85%
    20:00 +12°C° 0.4 mm 3 mps 737 mmHg 89%
    21:00 +11°C° 0 mm 3 mps 737 mmHg 91%
    22:00 +10°C° 0 mm 3 mps 737 mmHg 93%
    23:00 +9°C° 0 mm 3 mps 737 mmHg 95%

    5 June, Friday

    Time Temperature Precipitation Wind Pressure Humidity
    00:00 +9°C° 0 mm 2 mps 738 mmHg 95%
    01:00 +9°C° 0 mm 2 mps 738 mmHg 95%
    02:00 +8°C° 0 mm 2 mps 738 mmHg 96%
    03:00 +8°C° 0 mm 2 mps 738 mmHg 96%
    04:00 +9°C° 0 mm 2 mps 738 mmHg 97%
    05:00 +9°C° 0 mm 2 mps 738 mmHg 97%
    06:00 +11°C° 0 mm 3 mps 738 mmHg 94%
    07:00 +12°C° 0 mm 3 mps 738 mmHg 91%
    08:00 +14°C° 0 mm 3 mps 739 mmHg 87%
    09:00 +17°C° 0.1 mm 4 mps 738 mmHg 81%
    10:00 +18°C° 0.1 mm 4 mps 738 mmHg 75%
    11:00 +20°C° 0.1 mm 4 mps 738 mmHg 69%
    12:00 +20°C° 0.5 mm 5 mps 738 mmHg 72%
    13:00 +20°C° 0.5 mm 6 mps 738 mmHg 75%
    14:00 +19°C° 0.5 mm 6 mps 739 mmHg 78%
    15:00 +17°C° 0.4 mm 6 mps 738 mmHg 84%
    16:00 +16°C° 0.4 mm 5 mps 738 mmHg 90%
    17:00 +14°C° 0.4 mm 4 mps 738 mmHg 96%
    18:00 +14°C° 0.2 mm 4 mps 738 mmHg 96%
    19:00 +14°C° 0.2 mm 4 mps 738 mmHg 97%
    20:00 +16°C° 0.2 mm 3 mps 738 mmHg 97%
    21:00 +15°C° 0.2 mm 4 mps 738 mmHg 97%
    22:00 +15°C° 0.2 mm 4 mps 739 mmHg 97%
    23:00 +15°C° 0.2 mm 4 mps 739 mmHg 96%

    6 June, Saturday

    Time Temperature Precipitation Wind Pressure Humidity
    00:00 +15°C° 0.2 mm 4 mps 739 mmHg 96%
    01:00 +15°C° 0.2 mm 4 mps 739 mmHg 96%
    02:00 +15°C° 0.2 mm 4 mps 739 mmHg 96%
    03:00 +15°C° 0 mm 4 mps 739 mmHg 96%
    04:00 +15°C° 0 mm 4 mps 739 mmHg 95%
    05:00 +16°C° 0 mm 3 mps 739 mmHg 95%
    06:00 +15°C° 0.1 mm 4 mps 739 mmHg 94%
    07:00 +17°C° 0.1 mm 4 mps 740 mmHg 93%
    08:00 +18°C° 0.1 mm 4 mps 740 mmHg 92%
    09:00 +18°C° 0.1 mm 4 mps 741 mmHg 90%
    10:00 +17°C° 0.1 mm 5 mps 741 mmHg 88%
    11:00 +19°C° 0.1 mm 5 mps 742 mmHg 86%
    12:00 +20°C° 0.2 mm 5 mps 742 mmHg 79%
    13:00 +21°C° 0.2 mm 5 mps 743 mmHg 72%
    14:00 +23°C° 0.2 mm 5 mps 743 mmHg 65%
    15:00 +23°C° 0 mm 4 mps 743 mmHg 65%
    16:00 +22°C° 0 mm 4 mps 744 mmHg 65%
    17:00 +22°C° 0 mm 3 mps 744 mmHg 66%
    18:00 +21°C° 0 mm 3 mps 744 mmHg 72%
    19:00 +19°C° 0 mm 2 mps 745 mmHg 77%
    20:00 +17°C° 0 mm 2 mps 745 mmHg 83%
    21:00 +16°C° 0 mm 2 mps 746 mmHg 86%
    22:00 +15°C° 0 mm 1 mps 746 mmHg 88%
    23:00 +14°C° 0 mm 1 mps 747 mmHg 90%

    7 June, Sunday

    Time Temperature Precipitation Wind Pressure Humidity
    00:00 +14°C° 0 mm 1 mps 747 mmHg 90%
    01:00 +14°C° 0 mm 1 mps 747 mmHg 90%
    02:00 +12°C° 0 mm 0 mps 747 mmHg 90%
    03:00 +14°C° 0 mm 1 mps 748 mmHg 90%
    04:00 +14°C° 0 mm 1 mps 748 mmHg 91%
    05:00 +14°C° 0 mm 2 mps 748 mmHg 91%
    06:00 +16°C° 0 mm 2 mps 748 mmHg 86%
    07:00 +18°C° 0 mm 2 mps 748 mmHg 82%
    08:00 +20°C° 0 mm 3 mps 749 mmHg 77%
    09:00 +21°C° 0 mm 3 mps 748 mmHg 73%
    10:00 +22°C° 0 mm 4 mps 748 mmHg 70%
    11:00 +23°C° 0 mm 4 mps 748 mmHg 66%
    12:00 +25°C° 0.3 mm 4 mps 748 mmHg 68%
    13:00 +25°C° 0.3 mm 5 mps 747 mmHg 70%
    14:00 +25°C° 0.3 mm 5 mps 747 mmHg 73%
    15:00 +25°C° 0.5 mm 4 mps 747 mmHg 75%
    16:00 +25°C° 0.5 mm 4 mps 746 mmHg 76%
    17:00 +25°C° 0.5 mm 4 mps 746 mmHg 78%
    18:00 +23°C° 0.7 mm 4 mps 746 mmHg 82%
    19:00 +22°C° 0.7 mm 4 mps 745 mmHg 85%
    20:00 +20°C° 0.7 mm 4 mps 745 mmHg 89%
    21:00 +19°C° 0.8 mm 4 mps 745 mmHg 89%
    22:00 +19°C° 0.8 mm 4 mps 746 mmHg 90%
    23:00 +18°C° 0.8 mm 4 mps 746 mmHg 90%
    Show more